Starlink 30090

operational
NORAD ID: 56293 Int'l Des: 2023-056 Owner: SPXS Country: US Constellation: starlink
LEOCIRCULAR

Starlink 30090について

説明を読み込み中...

リアルタイム位置

3D地球を読み込み中...

次回通過

高度履歴

Altitude vs Time

uPlot chart will show altitude changes over time

軌道要素

1 56293U 23056H 25258.48560189 -.00001052 00000-0 -62803-4 0 9997
2 56293 43.0040 82.7016 0000890 211.3249 148.7541 15.02531662133661
Epoch: Sep 15, 2025 • Age: 14 hours

現在のステータス

高度 563.3 km
速度 7.58 km/s
衛星直下点 -18.25°S, 35.22°E
打ち上げ日 Apr 19, 2023
運用期間 2.4 years
タイプ internet

技術仕様

分類 Payload
質量 730.00 kg
乾燥質量 700.00 kg
総質量 730.00 kg
長さ 0.30 m
直径 4.10 m
スパン 29.00 m
形状 Box + pan
製造者 SPXS
バスタイプ Starlink V2M
フェーズステータス In Orbit
所有者/国 SPXS/US

大規模コンステレーション

Loading constellations...